Погода в Серике

Турция     36°55′02″N   31°06′16″E
темп.,
°C
ветер,
м/с
пор.,
м/с
влажн.,
%
обл.,
%
осадки,
мм/ч
давл.,
гПа
погр.,
м
22 июня, вт
вт2200:00+21зюз117776 0.0 101111
03:00+21св11785 0.0 101012
06:00+20ссз11744 0.0 101012
09:00+26ююз21485 0.0 1011725
12:00+30ю63405 0.0 10111733
15:00+29ю53434 0.0 10111474
18:00+27ю33499 0.0 1011898
21:00+22ююв12706 0.0 101114
23 июня, ср
ср2300:00+22с22722 0.0 101216
03:00+22ссз23610 0.0 101039
06:00+21с33550 0.0 101146
09:00+30сз24310 0.0 10111046
12:00+34ююз44240 0.0 10101929
15:00+32ююв64380 0.0 1011942
18:00+30ююв43390 0.0 1011690
21:00+25юв226326 0.0 101136
24 июня, чт
чт2400:00+23ссз11664 0.0 101111
03:00+23ссз22530 0.0 101016
06:00+24с33450 0.0 101048
09:00+33ссз55270 0.0 10101217
12:00+37с44180 0.0 10093202
15:00+37юв65236 0.0 10082239
18:00+30юв334649 0.0 1009457
21:00+26в11590 0.0 100914
25 июня, пт
пт2500:00+26с22490 0.0 100914
03:00+26с33390 0.0 100838
06:00+25с45450 0.0 100877
09:00+34с45280 0.0 10081171
12:00+38с33190 0.0 10073255
15:00+39юв441935 0.0 10062698
18:00+32ю453783 0.0 1007322
21:00+28св11510 0.0 100712
26 июня, сб
сб2600:00+27с33390 0.0 100739
03:00+27с45370 0.0 100760
06:00+26с45450 0.0 100774
09:00+35ссз45260 0.0 10071108
12:00+39с34170 0.0 10063007
15:00+42св44140 0.0 10043663
18:00+34юв56340 0.0 1005473
21:00+28св22450 0.0 100619